When you browse on this site, cookies collect data to enhance your experience and personalize the content and advertising you see.
Visit our Privacy Policy to learn more. By continuing to use the site, you agree to this use of cookies and data.

Stündliche Wetter Bolshie Novoselki

Heute, 25 September, Freitag

Zeit Temperatur Niederschläge Wind Luftdruck Luftfeuchtigkeit
00:00 +13°C° 0 mm 3 m/S 738 mmHg 70%
01:00 +13°C° 0 mm 3 m/S 738 mmHg 72%
02:00 +12°C° 0 mm 3 m/S 738 mmHg 73%
03:00 +12°C° 0 mm 3 m/S 738 mmHg 75%
04:00 +12°C° 0 mm 3 m/S 738 mmHg 76%
05:00 +12°C° 0 mm 3 m/S 738 mmHg 77%
06:00 +13°C° 0 mm 3 m/S 738 mmHg 74%
07:00 +13°C° 0 mm 4 m/S 737 mmHg 72%
08:00 +14°C° 0 mm 4 m/S 737 mmHg 69%
09:00 +17°C° 0 mm 4 m/S 737 mmHg 65%
10:00 +19°C° 0 mm 4 m/S 737 mmHg 62%
11:00 +20°C° 0 mm 5 m/S 737 mmHg 58%
12:00 +21°C° 0 mm 5 m/S 737 mmHg 56%
13:00 +22°C° 0 mm 5 m/S 737 mmHg 53%
14:00 +23°C° 0 mm 5 m/S 736 mmHg 51%
15:00 +22°C° 0 mm 5 m/S 736 mmHg 54%
16:00 +22°C° 0 mm 5 m/S 736 mmHg 58%
17:00 +21°C° 0 mm 4 m/S 736 mmHg 61%
18:00 +20°C° 0.2 mm 4 m/S 736 mmHg 64%
19:00 +19°C° 0.2 mm 5 m/S 736 mmHg 66%
20:00 +17°C° 0.2 mm 5 m/S 735 mmHg 68%
21:00 +16°C° 0.2 mm 5 m/S 735 mmHg 70%
22:00 +16°C° 0.2 mm 5 m/S 735 mmHg 71%
23:00 +15°C° 0.2 mm 5 m/S 735 mmHg 73%

Morgen, 26 September, Samstag

Zeit Temperatur Niederschläge Wind Luftdruck Luftfeuchtigkeit
00:00 +15°C° 0 mm 5 m/S 735 mmHg 73%
01:00 +15°C° 0 mm 5 m/S 735 mmHg 74%
02:00 +15°C° 0 mm 5 m/S 735 mmHg 75%
03:00 +14°C° 0 mm 5 m/S 734 mmHg 75%
04:00 +14°C° 0 mm 5 m/S 734 mmHg 75%
05:00 +14°C° 0 mm 5 m/S 734 mmHg 75%
06:00 +14°C° 0 mm 5 m/S 734 mmHg 75%
07:00 +15°C° 0 mm 6 m/S 734 mmHg 74%
08:00 +15°C° 0 mm 6 m/S 734 mmHg 74%
09:00 +17°C° 0.1 mm 7 m/S 734 mmHg 69%
10:00 +20°C° 0.1 mm 7 m/S 735 mmHg 63%
11:00 +22°C° 0.1 mm 8 m/S 735 mmHg 58%
12:00 +22°C° 0 mm 8 m/S 735 mmHg 57%
13:00 +23°C° 0 mm 8 m/S 735 mmHg 56%
14:00 +24°C° 0 mm 8 m/S 735 mmHg 55%
15:00 +23°C° 0 mm 7 m/S 735 mmHg 56%
16:00 +22°C° 0 mm 6 m/S 735 mmHg 58%
17:00 +21°C° 0 mm 6 m/S 735 mmHg 60%
18:00 +21°C° 0 mm 6 m/S 735 mmHg 60%
19:00 +20°C° 0 mm 6 m/S 735 mmHg 59%
20:00 +18°C° 0 mm 7 m/S 735 mmHg 59%
21:00 +18°C° 0 mm 7 m/S 735 mmHg 59%
22:00 +18°C° 0 mm 7 m/S 735 mmHg 59%
23:00 +17°C° 0 mm 7 m/S 735 mmHg 59%

übermorgen, 27 September, Sonntag

Zeit Temperatur Niederschläge Wind Luftdruck Luftfeuchtigkeit
00:00 +17°C° 0 mm 7 m/S 735 mmHg 56%
01:00 +17°C° 0 mm 7 m/S 735 mmHg 54%
02:00 +16°C° 0 mm 7 m/S 735 mmHg 51%
03:00 +16°C° 0 mm 7 m/S 735 mmHg 51%
04:00 +16°C° 0 mm 7 m/S 734 mmHg 51%
05:00 +15°C° 0 mm 7 m/S 734 mmHg 51%
06:00 +15°C° 0 mm 7 m/S 734 mmHg 51%
07:00 +15°C° 0 mm 8 m/S 734 mmHg 51%
08:00 +15°C° 0 mm 8 m/S 734 mmHg 51%
09:00 +16°C° 0 mm 8 m/S 734 mmHg 52%
10:00 +17°C° 0 mm 9 m/S 734 mmHg 52%
11:00 +19°C° 0 mm 9 m/S 734 mmHg 52%
12:00 +19°C° 0 mm 9 m/S 734 mmHg 53%
13:00 +19°C° 0 mm 9 m/S 733 mmHg 54%
14:00 +19°C° 0 mm 9 m/S 733 mmHg 55%
15:00 +18°C° 0.3 mm 9 m/S 733 mmHg 62%
16:00 +17°C° 0.3 mm 8 m/S 734 mmHg 69%
17:00 +16°C° 0.3 mm 8 m/S 734 mmHg 76%
18:00 +15°C° 0.4 mm 7 m/S 735 mmHg 79%
19:00 +13°C° 0.4 mm 6 m/S 736 mmHg 83%
20:00 +10°C° 0.4 mm 5 m/S 736 mmHg 86%
21:00 +10°C° 0 mm 5 m/S 737 mmHg 86%
22:00 +10°C° 0 mm 4 m/S 738 mmHg 85%
23:00 +10°C° 0 mm 4 m/S 739 mmHg 84%

28 September, Montag

Zeit Temperatur Niederschläge Wind Luftdruck Luftfeuchtigkeit
00:00 +9°C° 0 mm 3 m/S 740 mmHg 88%
01:00 +8°C° 0 mm 3 m/S 740 mmHg 91%
02:00 +7°C° 0 mm 2 m/S 741 mmHg 94%
03:00 +7°C° 0 mm 2 m/S 741 mmHg 94%
04:00 +7°C° 0 mm 2 m/S 741 mmHg 94%
05:00 +7°C° 0 mm 2 m/S 742 mmHg 94%
06:00 +8°C° 0 mm 2 m/S 742 mmHg 91%
07:00 +8°C° 0 mm 2 m/S 742 mmHg 88%
08:00 +9°C° 0 mm 3 m/S 743 mmHg 85%
09:00 +11°C° 0 mm 3 m/S 743 mmHg 79%
10:00 +12°C° 0 mm 3 m/S 743 mmHg 73%
11:00 +14°C° 0 mm 3 m/S 743 mmHg 67%
12:00 +14°C° 0 mm 3 m/S 743 mmHg 64%
13:00 +16°C° 0 mm 2 m/S 743 mmHg 62%
14:00 +16°C° 0 mm 2 m/S 743 mmHg 60%
15:00 +16°C° 0.1 mm 2 m/S 743 mmHg 63%
16:00 +15°C° 0.1 mm 2 m/S 742 mmHg 67%
17:00 +15°C° 0.1 mm 2 m/S 742 mmHg 70%
18:00 +13°C° 0 mm 3 m/S 742 mmHg 71%
19:00 +13°C° 0 mm 3 m/S 742 mmHg 71%
20:00 +12°C° 0 mm 4 m/S 742 mmHg 71%
21:00 +12°C° 0 mm 4 m/S 742 mmHg 70%
22:00 +12°C° 0 mm 5 m/S 742 mmHg 69%
23:00 +13°C° 0 mm 5 m/S 741 mmHg 68%

29 September, Dienstag

Zeit Temperatur Niederschläge Wind Luftdruck Luftfeuchtigkeit
00:00 +13°C° 0.1 mm 5 m/S 741 mmHg 70%
01:00 +12°C° 0.1 mm 5 m/S 740 mmHg 72%
02:00 +12°C° 0.1 mm 4 m/S 740 mmHg 74%
03:00 +12°C° 0.1 mm 4 m/S 740 mmHg 75%
04:00 +12°C° 0.1 mm 4 m/S 739 mmHg 77%
05:00 +12°C° 0.1 mm 4 m/S 739 mmHg 78%
06:00 +12°C° 0.1 mm 4 m/S 739 mmHg 80%
07:00 +12°C° 0.1 mm 4 m/S 739 mmHg 81%
08:00 +12°C° 0.1 mm 4 m/S 739 mmHg 83%
09:00 +12°C° 0.9 mm 3 m/S 738 mmHg 86%
10:00 +12°C° 0.9 mm 3 m/S 738 mmHg 89%
11:00 +13°C° 0.9 mm 2 m/S 738 mmHg 92%
12:00 +12°C° 0.9 mm 3 m/S 738 mmHg 91%
13:00 +13°C° 0.9 mm 4 m/S 738 mmHg 89%
14:00 +13°C° 0.9 mm 4 m/S 737 mmHg 88%
15:00 +13°C° 0.2 mm 4 m/S 737 mmHg 88%
16:00 +14°C° 0.2 mm 4 m/S 737 mmHg 88%
17:00 +14°C° 0.2 mm 4 m/S 736 mmHg 87%
18:00 +14°C° 1.1 mm 4 m/S 736 mmHg 86%
19:00 +14°C° 1.1 mm 4 m/S 735 mmHg 85%
20:00 +14°C° 1.1 mm 5 m/S 735 mmHg 85%
21:00 +14°C° 0.6 mm 5 m/S 735 mmHg 84%
22:00 +14°C° 0.6 mm 5 m/S 735 mmHg 83%
23:00 +14°C° 0.6 mm 5 m/S 734 mmHg 82%

30 September, Mittwoch

Zeit Temperatur Niederschläge Wind Luftdruck Luftfeuchtigkeit
00:00 +14°C° 0 mm 5 m/S 734 mmHg 82%
01:00 +14°C° 0 mm 5 m/S 734 mmHg 82%
02:00 +13°C° 0 mm 5 m/S 733 mmHg 82%
03:00 +13°C° 0.3 mm 5 m/S 733 mmHg 82%
04:00 +12°C° 0.3 mm 5 m/S 733 mmHg 82%
05:00 +12°C° 0.3 mm 5 m/S 733 mmHg 82%
06:00 +10°C° 1.7 mm 6 m/S 732 mmHg 84%
07:00 +10°C° 1.7 mm 6 m/S 732 mmHg 87%
08:00 +9°C° 1.7 mm 7 m/S 732 mmHg 89%
09:00 +10°C° 0.3 mm 7 m/S 732 mmHg 88%
10:00 +11°C° 0.3 mm 7 m/S 732 mmHg 87%
11:00 +12°C° 0.3 mm 8 m/S 732 mmHg 85%
12:00 +12°C° 0 mm 7 m/S 732 mmHg 85%
13:00 +12°C° 0 mm 7 m/S 732 mmHg 85%
14:00 +11°C° 0 mm 7 m/S 732 mmHg 86%
15:00 +11°C° 0.9 mm 7 m/S 732 mmHg 88%
16:00 +10°C° 0.9 mm 7 m/S 733 mmHg 90%
17:00 +9°C° 0.9 mm 7 m/S 733 mmHg 92%
18:00 +9°C° 1.5 mm 7 m/S 733 mmHg 92%
19:00 +9°C° 1.5 mm 6 m/S 733 mmHg 93%
20:00 +9°C° 1.5 mm 6 m/S 733 mmHg 94%
21:00 +9°C° 0.6 mm 6 m/S 733 mmHg 94%
22:00 +10°C° 0.6 mm 6 m/S 733 mmHg 94%
23:00 +10°C° 0.6 mm 6 m/S 733 mmHg 93%
Mehr zeigen